User: anonymous   Login
Location: Campillo
(40.8621°N, 4.2488°W)
Time: 18:13:38
(UTC+00:00)
Language:

BREEZE-M DEB (TANK) - Orbit

View from above orbital plane
View from above orbital plane
View from above satellite
View from above satellite

Ground track
Ground track

The orbit data is extracted from the following two-line orbital elements,

1 36103U 09065C   21209.98802325  .00001357  00000-0  23480-3 0  9990
2 36103  49.4005 347.4393 5307419 203.9345 117.9654  5.12570446215842
Epoch (UTC): 28 July 2021 23:42:45
Eccentricity: 0.5307419
inclination: 49.4005°
perigee height: 289 km
apogee height: 15372 km
right ascension of ascending node: 347.4393°
argument of perigee: 203.9345°
revolutions per day: 5.12570446
mean anomaly at epoch: 117.9654°
orbit number at epoch: 21584

The dashed part of the orbit path shows where the satellite is in the earth's shadow,  

DLR